Radiation Dose at Monitoring Post of Fukushima Daini Nuclear Power Station
Date,Time,MP-1(microSv/h),MP-2(microSv/h),MP-3(microSv/h),MP-4(microSv/h),MP-5(microSv/h),MP-6(microSv/h),MP-7(microSv/h),Wind Direction,Wind Velocity(m/s),Rain
2024/04/12,00:00,0.143,0.124,0.204,0.190,0.203,0.113,0.074,southwest,4.0,No
2024/04/12,00:10,0.143,0.124,0.203,0.190,0.202,0.112,0.074,south-southwest,3.1,No
2024/04/12,00:20,0.143,0.125,0.203,0.191,0.204,0.112,0.074,south-southwest,3.2,No
2024/04/12,00:30,0.144,0.124,0.204,0.190,0.202,0.113,0.073,south-southwest,3.0,No
2024/04/12,00:40,0.143,0.123,0.205,0.189,0.202,0.113,0.074,south-southwest,3.7,No
2024/04/12,00:50,0.144,0.124,0.203,0.191,0.203,0.114,0.074,south-southwest,3.3,No
2024/04/12,01:00,0.143,0.125,0.203,0.191,0.203,0.113,0.074,south-southwest,3.0,No
2024/04/12,01:10,0.143,0.124,0.205,0.191,0.204,0.113,0.073,southwest,2.2,No
2024/04/12,01:20,0.144,0.125,0.203,0.191,0.203,0.112,0.074,south-southwest,2.4,No
2024/04/12,01:30,0.143,0.124,0.203,0.190,0.202,0.112,0.074,south,2.4,No
2024/04/12,01:40,0.143,0.123,0.204,0.190,0.204,0.113,0.074,south-southwest,2.0,No
2024/04/12,01:50,0.144,0.124,0.204,0.191,0.202,0.113,0.074,southwest,2.8,No
2024/04/12,02:00,0.143,0.124,0.203,0.190,0.204,0.113,0.074,southwest,3.4,No
2024/04/12,02:10,0.143,0.123,0.204,0.190,0.202,0.112,0.074,south-southwest,3.0,No
2024/04/12,02:20,0.143,0.124,0.204,0.190,0.202,0.112,0.074,south-southwest,2.5,No
2024/04/12,02:30,0.143,0.124,0.204,0.191,0.202,0.112,0.074,south-southwest,2.5,No
2024/04/12,02:40,0.143,0.123,0.204,0.190,0.202,0.112,0.074,south-southwest,2.3,No
2024/04/12,02:50,0.143,0.125,0.204,0.190,0.204,0.112,0.075,south-southwest,2.1,No
2024/04/12,03:00,0.144,0.123,0.204,0.190,0.201,0.113,0.073,south-southwest,1.9,No
2024/04/12,03:10,0.143,0.124,0.204,0.190,0.204,0.113,0.074,south-southwest,1.6,No
2024/04/12,03:20,0.143,0.125,0.204,0.191,0.203,0.113,0.074,south,1.3,No
2024/04/12,03:30,0.144,0.124,0.203,0.190,0.203,0.113,0.075,south,1.5,No
2024/04/12,03:40,0.142,0.124,0.204,0.190,0.203,0.113,0.074,south-southeast,1.5,No
2024/04/12,03:50,0.143,0.124,0.204,0.191,0.202,0.113,0.074,south-southeast,1.3,No
2024/04/12,04:00,0.143,0.124,0.203,0.191,0.204,0.114,0.074,south-southeast,1.1,No
2024/04/12,04:10,0.142,0.124,0.203,0.190,0.202,0.113,0.074,south-southeast,1.2,No
2024/04/12,04:20,0.144,0.124,0.203,0.191,0.205,0.112,0.074,south-southeast,0.7,No
2024/04/12,04:30,0.143,0.124,0.203,0.190,0.203,0.113,0.074,southeast,0.8,No
2024/04/12,04:40,0.143,0.124,0.204,0.190,0.204,0.113,0.074,south,0.6,No
2024/04/12,04:50,0.144,0.124,0.205,0.192,0.203,0.113,0.075,south,1.2,No
2024/04/12,05:00,0.143,0.124,0.205,0.191,0.203,0.113,0.075,south,1.0,No
2024/04/12,05:10,0.144,0.125,0.204,0.191,0.205,0.113,0.075,southeast,0.7,No
2024/04/12,05:20,0.144,0.124,0.203,0.191,0.203,0.112,0.074,-,CALM,No
2024/04/12,05:30,0.143,0.124,0.205,0.191,0.203,0.113,0.074,south-southwest,1.0,No
2024/04/12,05:40,0.143,0.125,0.205,0.190,0.204,0.113,0.074,south-southwest,0.8,No
2024/04/12,05:50,0.143,0.124,0.202,0.190,0.203,0.113,0.074,-,CALM,No
2024/04/12,06:00,0.143,0.124,0.204,0.190,0.204,0.112,0.075,-,CALM,No
2024/04/12,06:10,0.142,0.125,0.203,0.190,0.203,0.113,0.074,southwest,0.9,No
2024/04/12,06:20,0.142,0.125,0.203,0.190,0.203,0.113,0.075,southwest,0.6,No
2024/04/12,06:30,0.144,0.124,0.204,0.189,0.203,0.113,0.074,-,CALM,No
2024/04/12,06:40,0.143,0.124,0.204,0.190,0.203,0.113,0.075,-,CALM,No
2024/04/12,06:50,0.144,0.124,0.203,0.190,0.203,0.114,0.074,-,CALM,No
2024/04/12,07:00,0.144,0.123,0.204,0.189,0.202,0.112,0.074,-,CALM,No
2024/04/12,07:10,0.143,0.124,0.204,0.191,0.203,0.113,0.075,-,CALM,No
2024/04/12,07:20,0.144,0.124,0.204,0.191,0.202,0.113,0.074,-,CALM,No
2024/04/12,07:30,0.142,0.125,0.204,0.189,0.204,0.114,0.075,-,CALM,No
2024/04/12,07:40,0.144,0.124,0.202,0.189,0.202,0.112,0.074,-,CALM,No
2024/04/12,07:50,0.144,0.125,0.203,0.189,0.204,0.113,0.075,-,CALM,No
2024/04/12,08:00,0.144,0.124,0.202,0.189,0.202,0.113,0.075,-,CALM,No
2024/04/12,08:10,0.143,0.124,0.204,0.189,0.203,0.113,0.075,-,CALM,No
2024/04/12,08:20,0.145,0.125,0.202,0.190,0.204,0.113,0.075,-,CALM,No
2024/04/12,08:30,0.143,0.125,0.204,0.190,0.203,0.113,0.075,-,CALM,No
2024/04/12,08:40,0.144,0.124,0.203,0.190,0.205,0.113,0.075,-,CALM,No
2024/04/12,08:50,0.144,0.125,0.205,0.192,0.202,0.113,0.076,-,CALM,No
2024/04/12,09:00,0.144,0.124,0.204,0.190,0.205,0.112,0.075,north-northeast,1.0,No
2024/04/12,09:10,0.143,0.125,0.202,0.191,0.202,0.113,0.073,east-northeast,0.9,No
2024/04/12,09:20,0.143,0.123,0.204,0.190,0.202,0.113,0.075,east-northeast,1.3,No
2024/04/12,09:30,0.144,0.125,0.202,0.188,0.204,0.113,0.074,east-northeast,1.7,No
2024/04/12,09:40,0.144,0.124,0.205,0.191,0.202,0.113,0.074,east-northeast,2.2,No
2024/04/12,09:50,0.143,0.125,0.203,0.191,0.204,0.113,0.073,east-northeast,2.4,No
2024/04/12,10:00,0.143,0.124,0.204,0.191,0.203,0.113,0.075,northeast,2.2,No
2024/04/12,10:10,0.144,0.125,0.204,0.191,0.205,0.113,0.074,northeast,2.6,No
2024/04/12,10:20,0.143,0.124,0.204,0.191,0.204,0.113,0.074,northeast,2.3,No
2024/04/12,10:30,0.143,0.125,0.205,0.191,0.204,0.112,0.075,northeast,2.0,No
2024/04/12,10:40,0.144,0.125,0.204,0.190,0.203,0.113,0.074,east-northeast,2.4,No
2024/04/12,10:50,0.144,0.125,0.204,0.191,0.202,0.114,0.075,northeast,2.6,No
2024/04/12,11:00,0.143,0.124,0.203,0.191,0.204,0.112,0.074,east,1.3,No
2024/04/12,11:10,0.144,0.124,0.204,0.192,0.201,0.113,0.074,east-northeast,1.8,No
2024/04/12,11:20,0.144,0.124,0.203,0.190,0.204,0.112,0.073,east-northeast,1.6,No
2024/04/12,11:30,0.144,0.124,0.204,0.191,0.203,0.113,0.074,east,1.4,No
2024/04/12,11:40,0.143,0.125,0.204,0.190,0.202,0.112,0.075,east,1.5,No
2024/04/12,11:50,0.144,0.123,0.205,0.190,0.205,0.113,0.074,east,1.7,No
2024/04/12,12:00,0.144,0.124,0.204,0.191,0.201,0.113,0.074,east,1.3,No
2024/04/12,12:10,0.144,0.124,0.203,0.190,0.203,0.113,0.073,east-southeast,1.6,No
2024/04/12,12:20,0.144,0.124,0.204,0.192,0.203,0.113,0.074,east,1.6,No
2024/04/12,12:30,0.144,0.124,0.202,0.190,0.200,0.113,0.074,east-northeast,1.5,No
2024/04/12,12:40,0.143,0.124,0.204,0.190,0.204,0.113,0.073,east-northeast,1.6,No
2024/04/12,12:50,0.143,0.124,0.203,0.190,0.204,0.114,0.074,east,1.9,No
2024/04/12,13:00,0.144,0.124,0.204,0.189,0.202,0.113,0.073,east,1.7,No
2024/04/12,13:10,0.144,0.124,0.204,0.191,0.204,0.112,0.074,east-northeast,1.6,No
2024/04/12,13:20,0.143,0.123,0.203,0.191,0.201,0.112,0.074,east,1.7,No
2024/04/12,13:30,0.143,0.125,0.204,0.190,0.203,0.113,0.074,east-northeast,1.9,No
2024/04/12,13:40,0.143,0.123,0.203,0.190,0.203,0.114,0.074,east-northeast,1.3,No
2024/04/12,13:50,0.142,0.125,0.204,0.189,0.202,0.113,0.074,east-northeast,1.3,No
2024/04/12,14:00,0.144,0.124,0.203,0.192,0.203,0.113,0.074,east-northeast,1.0,No
2024/04/12,14:10,0.143,0.125,0.205,0.190,0.203,0.113,0.074,east-northeast,1.2,No
2024/04/12,14:20,0.143,0.124,0.203,0.192,0.204,0.113,0.074,east-northeast,1.5,No
2024/04/12,14:30,0.143,0.124,0.204,0.190,0.202,0.112,0.073,east-northeast,1.1,No
2024/04/12,14:40,0.143,0.123,0.204,0.192,0.204,0.113,0.074,east-northeast,0.9,No
2024/04/12,14:50,0.142,0.126,0.204,0.191,0.202,0.112,0.074,east-northeast,0.8,No
2024/04/12,15:00,0.144,0.124,0.204,0.192,0.204,0.114,0.075,east-southeast,1.0,No
2024/04/12,15:10,0.144,0.124,0.205,0.191,0.202,0.112,0.073,east,2.5,No
2024/04/12,15:20,0.143,0.124,0.202,0.191,0.204,0.113,0.074,east-southeast,2.1,No
2024/04/12,15:30,0.143,0.125,0.204,0.190,0.204,0.113,0.074,east-southeast,1.9,No
2024/04/12,15:40,0.142,0.123,0.203,0.191,0.201,0.112,0.075,east-southeast,1.9,No
2024/04/12,15:50,0.144,0.124,0.204,0.190,0.204,0.113,0.074,east,1.7,No
2024/04/12,16:00,0.143,0.124,0.203,0.189,0.202,0.113,0.074,east,1.7,No
2024/04/12,16:10,0.143,0.125,0.205,0.192,0.205,0.113,0.074,east-southeast,2.3,No
2024/04/12,16:20,0.143,0.123,0.204,0.190,0.202,0.112,0.074,east-southeast,2.1,No
2024/04/12,16:30,0.143,0.124,0.205,0.192,0.204,0.113,0.074,east,2.3,No
2024/04/12,16:40,0.143,0.125,0.203,0.190,0.203,0.112,0.074,east,1.9,No
2024/04/12,16:50,0.143,0.124,0.204,0.192,0.204,0.113,0.074,east,1.5,No
2024/04/12,17:00,0.143,0.123,0.203,0.190,0.204,0.112,0.074,east,2.5,No
2024/04/12,17:10,0.143,0.125,0.205,0.192,0.203,0.114,0.074,east,1.9,No
2024/04/12,17:20,0.143,0.124,0.203,0.190,0.204,0.112,0.074,east,2.6,No
2024/04/12,17:30,0.143,0.124,0.205,0.191,0.203,0.113,0.074,east,2.6,No
2024/04/12,17:40,0.144,0.124,0.203,0.190,0.204,0.112,0.074,east,2.5,No
2024/04/12,17:50,0.144,0.125,0.205,0.192,0.204,0.113,0.074,east,2.6,No
2024/04/12,18:00,0.142,0.124,0.204,0.191,0.203,0.113,0.074,east,2.5,No
2024/04/12,18:10,0.144,0.124,0.204,0.191,0.205,0.113,0.074,east,2.2,No
2024/04/12,18:20,0.143,0.124,0.205,0.191,0.203,0.113,0.074,east,2.4,No
2024/04/12,18:30,0.144,0.123,0.204,0.191,0.204,0.113,0.075,east-northeast,1.4,No
2024/04/12,18:40,0.144,0.125,0.205,0.192,0.203,0.112,0.074,northeast,1.9,No
2024/04/12,18:50,0.144,0.124,0.204,0.192,0.204,0.113,0.075,northeast,1.7,No
2024/04/12,19:00,0.143,0.125,0.203,0.190,0.203,0.113,0.074,northeast,1.7,No
2024/04/12,19:10,0.143,0.125,0.204,0.192,0.205,0.112,0.074,northeast,1.4,No
2024/04/12,19:20,0.144,0.124,0.205,0.191,0.204,0.113,0.074,northeast,1.3,No
2024/04/12,19:30,0.143,0.125,0.204,0.191,0.204,0.113,0.074,north-northeast,1.0,No
2024/04/12,19:40,0.144,0.125,0.204,0.191,0.204,0.113,0.075,north,1.3,No
2024/04/12,19:50,0.144,0.124,0.205,0.191,0.202,0.113,0.074,north,1.5,No
2024/04/12,20:00,0.143,0.123,0.204,0.191,0.205,0.113,0.074,north,1.5,No
2024/04/12,20:10,0.144,0.125,0.205,0.191,0.203,0.113,0.074,north,1.5,No
2024/04/12,20:20,0.144,0.124,0.205,0.191,0.203,0.112,0.074,north,1.4,No
2024/04/12,20:30,0.144,0.125,0.204,0.192,0.203,0.113,0.074,north-northeast,1.0,No
2024/04/12,20:40,0.145,0.124,0.204,0.191,0.203,0.113,0.075,north-northeast,1.3,No
2024/04/12,20:50,0.144,0.124,0.205,0.191,0.204,0.113,0.074,north,1.8,No
2024/04/12,21:00,0.144,0.125,0.205,0.192,0.203,0.113,0.075,north,2.2,No
2024/04/12,21:10,0.143,0.124,0.205,0.191,0.205,0.113,0.074,north,2.8,No
2024/04/12,21:20,0.143,0.125,0.205,0.192,0.204,0.112,0.075,north,3.0,No
2024/04/12,21:30,0.145,0.125,0.205,0.192,0.203,0.113,0.074,north,3.1,Yes
2024/04/12,21:40,0.144,0.125,0.206,0.190,0.205,0.114,0.074,north-northwest,3.7,No
2024/04/12,21:50,0.144,0.124,0.205,0.191,0.203,0.113,0.075,north-northwest,3.5,No
2024/04/12,22:00,0.144,0.125,0.205,0.192,0.203,0.112,0.074,north-northwest,3.0,No
2024/04/12,22:10,0.144,0.124,0.205,0.190,0.204,0.113,0.075,north-northwest,3.6,No
2024/04/12,22:20,0.143,0.125,0.205,0.193,0.203,0.113,0.075,north-northwest,3.8,No
2024/04/12,22:30,0.143,0.125,0.205,0.191,0.204,0.114,0.075,north-northwest,3.9,No
2024/04/12,22:40,0.144,0.124,0.205,0.191,0.203,0.113,0.074,north-northwest,4.0,No
2024/04/12,22:50,0.143,0.125,0.205,0.192,0.205,0.114,0.074,north-northwest,4.4,No
2024/04/12,23:00,0.144,0.124,0.204,0.191,0.204,0.113,0.074,north-northwest,4.4,No
2024/04/12,23:10,0.144,0.124,0.205,0.191,0.202,0.113,0.074,north-northwest,4.3,No
2024/04/12,23:20,0.144,0.125,0.206,0.191,0.205,0.112,0.074,north-northwest,4.3,No
2024/04/12,23:30,0.143,0.124,0.205,0.191,0.204,0.114,0.074,north-northwest,4.3,No
2024/04/12,23:40,0.144,0.126,0.204,0.191,0.204,0.114,0.075,north-northwest,4.5,No
2024/04/12,23:50,0.143,0.125,0.204,0.192,0.203,0.113,0.074,north-northwest,4.5,No
